Simultaneous Nadir Overpasses (SNOs) Predictions

Prediction of SNOs between GOES-16 and FY3D Satellite Orbit:

Table of predicted SNOs for the next 14.0 days since TLE Epoch: 10/29/2022
Index Date Time (GOES-16) GOES-16 Lat,Lon FY3D Lat,Lon Distance(km) Time Diff (sec)
1 10/29/2022 19:06:35 -0.03, -75.19 -0.71, -78.16 338.92 80
2 10/30/2022 18:50:50 -0.03, -75.20 0.33, -73.71 170.14 80
3 11/01/2022 07:10:26 0.02, -75.20 0.89, -79.07 441.45 80
4 11/02/2022 06:54:40 0.02, -75.20 -0.09, -74.60 68.06 80
5 11/04/2022 18:55:58 -0.01, -75.23 -0.06, -75.55 35.97 80
6 11/05/2022 18:40:12 -0.02, -75.24 0.92, -71.08 474.53 80
7 11/07/2022 06:59:48 0.01, -75.26 0.28, -76.45 134.78 80
8 11/08/2022 06:44:02 0.02, -75.28 -0.71, -71.98 375.92 80
9 11/09/2022 19:03:46 -0.01, -75.30 -0.48, -77.38 236.75 80
10 11/10/2022 18:48:00 -0.02, -75.32 0.51, -72.91 274.20 80
